QPF
0.12 0.11 0.11 0.11 0.09 0.07 0.07 0.07 0.06 0.07 0.06 0.04 0.02 0.02 0.03 0.03 0.03 0.03 0.03 0.03 0.02 0.03 0.04 0.02 0.02 0.02 0.02 0.03 0.04 0.05 0.05 0.04 0.04 0.03 0.02 0.01 0.02 0.02 0.02 0.02 0.02 0.01 0.01
0.10 0.10 0.09 0.09 0.07 0.05 0.04 0.05 0.04 0.05 0.05 0.05 0.03 0.03 0.03 0.04 0.04 0.05 0.05 0.06 0.06 0.04 0.03 0.03 0.02 0.02 0.02 0.03 0.04 0.05 0.04 0.05 0.04 0.03 0.02 0.01 0.02 0.02 0.02 0.02 0.02 0.01 0.01
0.09 0.10 0.09 0.07 0.05 0.03 0.03 0.05 0.05 0.06 0.05 0.04 0.04 0.04 0.04 0.04 0.04 0.05 0.06 0.07 0.07 0.06 0.05 0.03 0.02 0.02 0.03 0.03 0.04 0.05 0.05 0.04 0.03 0.02 0.02 0.02 0.02 0.02 0.02 0.02 0.02 0.02 0.02
0.06 0.09 0.07 0.05 0.04 0.03 0.04 0.05 0.05 0.05 0.06 0.05 0.05 0.06 0.06 0.07 0.05 0.06 0.06 0.08 0.09 0.07 0.05 0.04 0.02 0.03 0.04 0.04 0.03 0.04 0.04 0.04 0.03 0.03 0.04 0.04 0.03 0.03 0.03 0.03 0.03 0.03 0.03
0.04 0.05 0.07 0.05 0.03 0.04 0.05 0.05 0.05 0.07 0.08 0.08 0.04 0.06 0.06 0.06 0.06 0.06 0.06 0.07 0.10 0.10 0.08 0.05 0.04 0.04 0.04 0.04 0.04 0.05 0.05 0.04 0.04 0.04 0.04 0.04 0.05 0.04 0.05 0.06 0.05 0.04 0.03
0.04 0.04 0.05 0.04 0.03 0.05 0.07 0.07 0.07 0.08 0.08 0.07 0.04 0.06 0.06 0.05 0.06 0.07 0.09 0.08 0.08 0.10 0.10 0.08 0.07 0.07 0.05 0.05 0.06 0.07 0.07 0.06 0.06 0.06 0.05 0.05 0.06 0.06 0.06 0.06 0.05 0.04 0.04
0.04 0.05 0.04 0.07 0.05 0.07 0.07 0.06 0.09 0.11 0.09 0.07 0.09 0.08 0.06 0.06 0.05 0.06 0.08 0.07 0.06 0.09 0.10 0.11 0.11 0.12 0.10 0.06 0.05 0.05 0.08 0.09 0.08 0.06 0.05 0.04 0.06 0.06 0.05 0.06 0.06 0.06 0.05
0.05 0.05 0.06 0.06 0.06 0.07 0.07 0.07 0.11 0.10 0.09 0.09 0.11 0.11 0.11 0.11 0.10 0.08 0.09 0.09 0.06 0.05 0.06 0.07 0.09 0.10 0.10 0.12 0.07 0.04 0.06 0.06 0.08 0.08 0.07 0.05 0.04 0.04 0.04 0.04 0.05 0.06 0.06
0.03 0.03 0.04 0.05 0.06 0.05 0.07 0.07 0.09 0.10 0.11 0.10 0.08 0.11 0.13 0.14 0.13 0.09 0.05 0.06 0.04 0.04 0.04 0.04 0.05 0.07 0.08 0.10 0.08 0.06 0.04 0.04 0.05 0.06 0.06 0.06 0.04 0.03 0.03 0.03 0.05 0.08 0.08
0.04 0.04 0.03 0.04 0.05 0.05 0.07 0.06 0.08 0.11 0.11 0.10 0.09 0.09 0.09 0.09 0.11 0.11 0.07 0.05 0.04 0.03 0.03 0.02 0.04 0.06 0.06 0.07 0.06 0.03 0.02 0.02 0.02 0.03 0.03 0.04 0.04 0.03 0.03 0.04 0.05 0.05 0.04
0.04 0.02 0.03 0.03 0.04 0.06 0.05 0.05 0.09 0.09 0.09 0.09 0.10 0.09 0.08 0.08 0.09 0.10 0.09 0.07 0.05 0.04 0.03 0.02 0.03 0.04 0.05 0.05 0.04 0.02 0.02 0.01 0.00 0.01 0.01 0.02 0.03 0.04 0.04 0.05 0.06 0.05 0.04
0.04 0.03 0.01 0.02 0.03 0.05 0.05 0.05 0.06 0.07 0.07 0.08 0.09 0.08 0.08 0.09 0.08 0.09 0.09 0.09 0.08 0.07 0.04 0.02 0.02 0.03 0.04 0.04 0.02 0.02 0.01 0.01 0.00 0.00 0.01 0.01 0.01 0.02 0.03 0.04 0.05 0.05 0.05
0.04 0.04 0.03 0.02 0.03 0.03 0.04 0.06 0.05 0.07 0.07 0.06 0.07 0.07 0.07 0.07 0.06 0.08 0.10 0.09 0.08 0.05 0.03 0.02 0.01 0.01 0.02 0.03 0.02 0.02 0.02 0.01 0.01 0.00 0.00 0.00 0.00 0.00 0.01 0.02 0.03 0.04 0.05
0.04 0.03 0.03 0.03 0.03 0.02 0.03 0.06 0.06 0.05 0.06 0.06 0.06 0.07 0.07 0.06 0.05 0.06 0.07 0.08 0.09 0.07 0.05 0.03 0.01 0.02 0.02 0.03 0.03 0.03 0.02 0.01 0.01 0.00 0.00 0.00 0.00 0.00 0.00 0.00 0.01 0.01 0.01
0.04 0.04 0.03 0.04 0.04 0.03 0.03 0.04 0.05 0.05 0.05 0.06 0.06 0.06 0.06 0.06 0.05 0.05 0.06 0.07 0.08 0.10 0.09 0.05 0.03 0.02 0.02 0.03 0.03 0.02 0.02 0.03 0.02 0.01 0.00 0.00 0.00 0.00 0.00 0.01 0.01 0.00 0.00
0.04 0.03 0.03 0.03 0.04 0.03 0.03 0.03 0.04 0.04 0.04 0.05 0.05 0.05 0.06 0.06 0.05 0.03 0.05 0.07 0.08 0.09 0.09 0.06 0.04 0.03 0.03 0.03 0.03 0.02 0.02 0.02 0.01 0.01 0.00 0.00 0.00 0.00 0.00 0.00 0.00 0.00 0.00
0.03 0.03 0.02 0.02 0.02 0.03 0.03 0.03 0.03 0.03 0.03 0.03 0.04 0.05 0.06 0.06 0.05 0.05 0.05 0.05 0.06 0.07 0.07 0.07 0.07 0.05 0.05 0.03 0.02 0.02 0.01 0.01 0.01 0.01 0.01 0.01 0.00 0.00 0.00 0.00 0.00 0.00 0.01
0.02 0.02 0.02 0.02 0.02 0.02 0.03 0.03 0.03 0.03 0.03 0.03 0.05 0.05 0.06 0.05 0.05 0.05 0.05 0.05 0.07 0.08 0.07 0.06 0.06 0.06 0.05 0.04 0.02 0.02 0.01 0.01 0.01 0.01 0.01 0.01 0.00 0.00 0.00 0.00 0.00 0.00 0.01
0.03 0.03 0.03 0.03 0.02 0.02 0.02 0.03 0.03 0.03 0.04 0.03 0.04 0.04 0.03 0.03 0.03 0.04 0.03 0.03 0.04 0.05 0.05 0.05 0.06 0.06 0.04 0.03 0.03 0.02 0.01 0.01 0.01 0.01 0.01 0.01 0.00 0.00 0.00 0.00 0.00 0.00 0.00
0.03 0.04 0.04 0.03 0.03 0.03 0.02 0.02 0.02 0.03 0.04 0.03 0.03 0.02 0.02 0.03 0.03 0.03 0.02 0.02 0.03 0.04 0.05 0.06 0.06 0.05 0.03 0.03 0.03 0.03 0.02 0.02 0.01 0.01 0.01 0.00 0.00 0.00 0.00 0.00 0.00 0.00 0.00
0.04 0.04 0.04 0.04 0.04 0.03 0.02 0.02 0.02 0.02 0.03 0.02 0.02 0.02 0.02 0.02 0.02 0.02 0.01 0.02 0.03 0.03 0.04 0.04 0.04 0.05 0.05 0.03 0.02 0.02 0.02 0.01 0.01 0.01 0.01 0.00 0.00 0.00 0.00 0.00 0.00 0.00 0.00
0.04 0.04 0.04 0.04 0.05 0.05 0.03 0.01 0.02 0.02 0.02 0.02 0.01 0.01 0.01 0.01 0.01 0.00 0.01 0.01 0.02 0.03 0.03 0.04 0.04 0.04 0.05 0.04 0.03 0.02 0.02 0.02 0.01 0.01 0.01 0.01 0.01 0.01 0.00 0.00 0.00 0.00 0.00
0.03 0.04 0.04 0.04 0.04 0.04 0.03 0.01 0.01 0.01 0.01 0.01 0.01 0.01 0.01 0.00 0.01 0.01 0.01 0.01 0.01 0.02 0.02 0.03 0.03 0.03 0.04 0.04 0.05 0.04 0.03 0.03 0.03 0.02 0.02 0.02 0.01 0.01 0.01 0.00 0.00 0.00 0.00
0.03 0.03 0.03 0.03 0.03 0.03 0.02 0.01 0.01 0.01 0.01 0.01 0.01 0.01 0.01 0.01 0.01 0.02 0.02 0.02 0.01 0.01 0.02 0.02 0.02 0.04 0.05 0.06 0.05 0.04 0.04 0.04 0.04 0.03 0.03 0.02 0.02 0.02 0.02 0.01 0.00 0.00 0.00
0.03 0.03 0.03 0.03 0.03 0.03 0.03 0.02 0.02 0.01 0.01 0.01 0.01 0.01 0.01 0.01 0.01 0.01 0.02 0.02 0.02 0.02 0.02 0.02 0.02 0.03 0.04 0.03 0.03 0.03 0.03 0.03 0.03 0.03 0.03 0.02 0.03 0.04 0.03 0.02 0.00 0.00 0.00
0.04 0.04 0.04 0.04 0.05 0.05 0.04 0.03 0.03 0.02 0.02 0.02 0.02 0.02 0.01 0.01 0.01 0.01 0.02 0.02 0.02 0.03 0.04 0.03 0.02 0.02 0.02 0.02 0.02 0.02 0.02 0.03 0.03 0.04 0.04 0.03 0.03 0.05 0.04 0.03 0.02 0.01 0.01
MSLP
1014.25 1014.38 1014.42 1014.41 1014.36 1014.31 1014.28 1014.28 1014.31 1014.34 1014.34 1014.30 1014.20 1014.04 1013.87 1013.71 1013.60 1013.60 1013.70 1013.92 1014.22 1014.58 1014.95 1015.29 1015.57 1015.79 1015.94 1016.04 1016.11 1016.18 1016.27 1016.41 1016.59 1016.82 1017.09 1017.38 1017.67 1017.94 1018.18 1018.39 1018.55 1018.69 1018.81
1014.01 1014.11 1014.15 1014.13 1014.07 1014.02 1013.98 1013.98 1014.01 1014.05 1014.07 1014.05 1013.96 1013.81 1013.61 1013.41 1013.23 1013.12 1013.12 1013.24 1013.47 1013.79 1014.16 1014.56 1014.93 1015.25 1015.51 1015.70 1015.83 1015.93 1016.02 1016.12 1016.26 1016.44 1016.66 1016.92 1017.20 1017.49 1017.75 1017.99 1018.20 1018.37 1018.52
1013.76 1013.85 1013.88 1013.86 1013.81 1013.76 1013.74 1013.74 1013.77 1013.82 1013.84 1013.82 1013.73 1013.57 1013.35 1013.09 1012.83 1012.63 1012.53 1012.54 1012.68 1012.95 1013.31 1013.73 1014.17 1014.58 1014.94 1015.22 1015.42 1015.56 1015.66 1015.74 1015.83 1015.97 1016.15 1016.38 1016.65 1016.94 1017.23 1017.52 1017.77 1017.99 1018.19
1013.55 1013.60 1013.62 1013.62 1013.60 1013.57 1013.57 1013.59 1013.62 1013.66 1013.69 1013.66 1013.56 1013.38 1013.13 1012.83 1012.51 1012.22 1012.01 1011.91 1011.96 1012.15 1012.46 1012.87 1013.34 1013.81 1014.23 1014.59 1014.86 1015.04 1015.15 1015.22 1015.29 1015.39 1015.53 1015.74 1016.00 1016.30 1016.63 1016.96 1017.27 1017.55 1017.79
1013.35 1013.38 1013.40 1013.42 1013.43 1013.45 1013.48 1013.52 1013.56 1013.60 1013.61 1013.58 1013.47 1013.28 1013.02 1012.69 1012.32 1011.96 1011.66 1011.47 1011.40 1011.48 1011.71 1012.07 1012.51 1012.98 1013.43 1013.83 1014.14 1014.36 1014.49 1014.57 1014.63 1014.70 1014.83 1015.02 1015.28 1015.61 1015.96 1016.34 1016.69 1017.02 1017.31
1013.15 1013.15 1013.18 1013.23 1013.30 1013.36 1013.43 1013.50 1013.56 1013.60 1013.60 1013.56 1013.46 1013.27 1013.01 1012.68 1012.30 1011.91 1011.54 1011.25 1011.07 1011.03 1011.15 1011.39 1011.75 1012.17 1012.61 1013.00 1013.33 1013.57 1013.72 1013.82 1013.88 1013.96 1014.08 1014.27 1014.54 1014.87 1015.26 1015.66 1016.05 1016.41 1016.74
1012.92 1012.90 1012.94 1013.02 1013.13 1013.26 1013.37 1013.47 1013.55 1013.59 1013.60 1013.56 1013.47 1013.32 1013.09 1012.80 1012.44 1012.04 1011.65 1011.29 1011.01 1010.84 1010.81 1010.92 1011.16 1011.48 1011.84 1012.20 1012.51 1012.75 1012.93 1013.04 1013.12 1013.22 1013.35 1013.54 1013.82 1014.15 1014.54 1014.96 1015.36 1015.74 1016.07
1012.65 1012.60 1012.64 1012.75 1012.91 1013.07 1013.23 1013.36 1013.46 1013.51 1013.53 1013.51 1013.46 1013.35 1013.19 1012.96 1012.66 1012.31 1011.91 1011.52 1011.16 1010.88 1010.71 1010.67 1010.76 1010.95 1011.22 1011.50 1011.78 1012.01 1012.19 1012.32 1012.43 1012.54 1012.69 1012.89 1013.16 1013.50 1013.88 1014.28 1014.67 1015.03 1015.35
1012.32 1012.23 1012.27 1012.39 1012.57 1012.78 1012.97 1013.12 1013.23 1013.30 1013.33 1013.34 1013.32 1013.29 1013.21 1013.07 1012.87 1012.58 1012.23 1011.84 1011.44 1011.09 1010.80 1010.63 1010.58 1010.64 1010.78 1010.99 1011.21 1011.42 1011.60 1011.75 1011.87 1012.01 1012.17 1012.38 1012.64 1012.95 1013.30 1013.66 1014.02 1014.34 1014.62
1011.95 1011.83 1011.84 1011.95 1012.14 1012.35 1012.55 1012.72 1012.83 1012.90 1012.95 1012.98 1013.02 1013.05 1013.06 1013.03 1012.93 1012.75 1012.47 1012.13 1011.74 1011.34 1010.99 1010.72 1010.55 1010.50 1010.55 1010.68 1010.84 1011.03 1011.20 1011.36 1011.50 1011.65 1011.82 1012.03 1012.27 1012.56 1012.86 1013.17 1013.46 1013.73 1013.95
1011.58 1011.41 1011.38 1011.47 1011.63 1011.83 1012.02 1012.17 1012.28 1012.34 1012.39 1012.44 1012.51 1012.60 1012.69 1012.76 1012.77 1012.69 1012.52 1012.25 1011.91 1011.53 1011.16 1010.84 1010.62 1010.49 1010.47 1010.54 1010.66 1010.82 1010.99 1011.16 1011.32 1011.48 1011.66 1011.86 1012.08 1012.33 1012.58 1012.83 1013.05 1013.24 1013.41
1011.24 1011.02 1010.94 1010.98 1011.10 1011.27 1011.42 1011.54 1011.62 1011.66 1011.69 1011.74 1011.83 1011.95 1012.09 1012.24 1012.34 1012.37 1012.30 1012.12 1011.86 1011.54 1011.21 1010.91 1010.67 1010.53 1010.48 1010.52 1010.62 1010.77 1010.93 1011.11 1011.28 1011.46 1011.64 1011.83 1012.04 1012.26 1012.46 1012.65 1012.80 1012.92 1013.02
1010.97 1010.69 1010.56 1010.54 1010.61 1010.71 1010.82 1010.89 1010.93 1010.93 1010.94 1010.96 1011.03 1011.16 1011.32 1011.51 1011.67 1011.77 1011.79 1011.72 1011.55 1011.33 1011.07 1010.83 1010.64 1010.52 1010.49 1010.53 1010.64 1010.79 1010.96 1011.14 1011.33 1011.52 1011.71 1011.91 1012.11 1012.30 1012.47 1012.61 1012.71 1012.77 1012.81
1010.76 1010.44 1010.25 1010.18 1010.18 1010.23 1010.28 1010.30 1010.28 1010.24 1010.20 1010.18 1010.21 1010.30 1010.45 1010.64 1010.82 1010.97 1011.06 1011.07 1011.00 1010.88 1010.73 1010.59 1010.48 1010.42 1010.44 1010.52 1010.64 1010.81 1010.99 1011.19 1011.39 1011.60 1011.81 1012.02 1012.22 1012.41 1012.56 1012.67 1012.74 1012.76 1012.75
1010.61 1010.27 1010.03 1009.91 1009.85 1009.84 1009.83 1009.80 1009.73 1009.64 1009.54 1009.47 1009.45 1009.48 1009.59 1009.73 1009.90 1010.06 1010.18 1010.25 1010.27 1010.25 1010.21 1010.18 1010.17 1010.20 1010.28 1010.41 1010.58 1010.76 1010.97 1011.18 1011.40 1011.62 1011.86 1012.08 1012.30 1012.50 1012.65 1012.76 1012.81 1012.81 1012.78
1010.51 1010.15 1009.88 1009.71 1009.62 1009.56 1009.50 1009.42 1009.30 1009.17 1009.02 1008.89 1008.80 1008.76 1008.80 1008.88 1009.00 1009.13 1009.26 1009.37 1009.45 1009.51 1009.57 1009.64 1009.73 1009.86 1010.01 1010.19 1010.40 1010.61 1010.84 1011.07 1011.30 1011.54 1011.79 1012.04 1012.28 1012.49 1012.67 1012.79 1012.85 1012.86 1012.83
1010.42 1010.05 1009.77 1009.58 1009.44 1009.34 1009.25 1009.13 1008.98 1008.80 1008.61 1008.43 1008.28 1008.18 1008.13 1008.14 1008.20 1008.28 1008.39 1008.50 1008.62 1008.74 1008.87 1009.03 1009.20 1009.40 1009.63 1009.86 1010.10 1010.34 1010.57 1010.81 1011.05 1011.30 1011.57 1011.83 1012.10 1012.34 1012.54 1012.69 1012.78 1012.81 1012.81
1010.32 1009.96 1009.67 1009.46 1009.29 1009.16 1009.03 1008.88 1008.70 1008.49 1008.27 1008.05 1007.85 1007.69 1007.58 1007.52 1007.51 1007.54 1007.60 1007.70 1007.82 1007.97 1008.15 1008.37 1008.61 1008.87 1009.15 1009.42 1009.69 1009.94 1010.18 1010.42 1010.66 1010.91 1011.18 1011.46 1011.74 1012.00 1012.23 1012.41 1012.54 1012.62 1012.66
1010.22 1009.86 1009.56 1009.32 1009.13 1008.96 1008.79 1008.61 1008.40 1008.17 1007.93 1007.68 1007.45 1007.25 1007.09 1006.97 1006.90 1006.87 1006.89 1006.95 1007.06 1007.22 1007.43 1007.68 1007.97 1008.27 1008.59 1008.89 1009.17 1009.44 1009.68 1009.91 1010.15 1010.39 1010.65 1010.92 1011.20 1011.48 1011.73 1011.95 1012.12 1012.25 1012.36
1010.11 1009.74 1009.42 1009.15 1008.91 1008.69 1008.48 1008.26 1008.02 1007.77 1007.51 1007.25 1007.01 1006.78 1006.59 1006.43 1006.31 1006.23 1006.20 1006.23 1006.32 1006.47 1006.69 1006.95 1007.27 1007.60 1007.94 1008.27 1008.57 1008.84 1009.09 1009.31 1009.53 1009.75 1010.00 1010.26 1010.53 1010.81 1011.07 1011.32 1011.53 1011.72 1011.90
1010.00 1009.60 1009.24 1008.92 1008.62 1008.34 1008.06 1007.79 1007.52 1007.24 1006.98 1006.71 1006.47 1006.23 1006.02 1005.83 1005.68 1005.56 1005.49 1005.48 1005.54 1005.68 1005.89 1006.16 1006.49 1006.85 1007.21 1007.56 1007.89 1008.17 1008.42 1008.64 1008.85 1009.05 1009.27 1009.51 1009.77 1010.04 1010.31 1010.58 1010.83 1011.08 1011.33
1009.91 1009.45 1009.03 1008.63 1008.25 1007.89 1007.54 1007.21 1006.89 1006.59 1006.31 1006.05 1005.80 1005.57 1005.35 1005.15 1004.97 1004.82 1004.71 1004.67 1004.70 1004.81 1005.01 1005.28 1005.62 1006.00 1006.40 1006.78 1007.13 1007.44 1007.70 1007.93 1008.13 1008.33 1008.53 1008.74 1008.98 1009.24 1009.51 1009.79 1010.08 1010.38 1010.70
1009.79 1009.27 1008.77 1008.28 1007.80 1007.35 1006.93 1006.53 1006.16 1005.84 1005.54 1005.28 1005.04 1004.81 1004.59 1004.38 1004.17 1004.00 1003.86 1003.78 1003.78 1003.87 1004.05 1004.33 1004.68 1005.09 1005.51 1005.93 1006.32 1006.67 1006.96 1007.21 1007.42 1007.61 1007.80 1008.00 1008.22 1008.46 1008.73 1009.03 1009.34 1009.69 1010.07
1009.64 1009.04 1008.44 1007.85 1007.29 1006.75 1006.24 1005.79 1005.38 1005.03 1004.73 1004.47 1004.23 1004.00 1003.78 1003.56 1003.34 1003.13 1002.96 1002.85 1002.82 1002.89 1003.07 1003.35 1003.71 1004.15 1004.61 1005.07 1005.51 1005.90 1006.23 1006.51 1006.74 1006.95 1007.14 1007.33 1007.54 1007.78 1008.05 1008.35 1008.68 1009.06 1009.48
1009.40 1008.71 1008.03 1007.36 1006.71 1006.10 1005.54 1005.04 1004.60 1004.24 1003.94 1003.68 1003.45 1003.22 1003.00 1002.76 1002.52 1002.29 1002.09 1001.95 1001.90 1001.95 1002.12 1002.40 1002.79 1003.25 1003.75 1004.26 1004.74 1005.18 1005.56 1005.87 1006.14 1006.36 1006.56 1006.76 1006.97 1007.21 1007.48 1007.78 1008.13 1008.52 1008.96
1009.04 1008.28 1007.53 1006.79 1006.09 1005.43 1004.84 1004.32 1003.88 1003.52 1003.22 1002.97 1002.74 1002.52 1002.29 1002.04 1001.78 1001.53 1001.30 1001.14 1001.07 1001.11 1001.28 1001.57 1001.97 1002.46 1003.00 1003.54 1004.07 1004.56 1004.98 1005.33 1005.63 1005.88 1006.10 1006.31 1006.53 1006.77 1007.04 1007.34 1007.69 1008.08 1008.51
Thickness
5762 5761 5760 5759 5759 5758 5758 5757 5757 5757 5758 5759 5760 5761 5761 5760 5758 5755 5751 5749 5748 5746 5744 5743 5741 5740 5738 5737 5736 5735 5734 5733 5731 5730 5728 5726 5725 5723 5722 5721 5720 5718 5717
5762 5761 5760 5760 5760 5760 5760 5759 5758 5757 5757 5758 5759 5759 5759 5758 5757 5754 5751 5749 5747 5746 5744 5742 5741 5740 5738 5737 5736 5735 5734 5732 5731 5729 5728 5726 5724 5723 5721 5720 5719 5718 5716
5763 5762 5761 5761 5762 5762 5762 5760 5759 5758 5757 5758 5757 5757 5757 5756 5755 5753 5751 5749 5747 5745 5743 5742 5741 5739 5738 5737 5736 5734 5733 5732 5730 5729 5727 5725 5723 5722 5720 5719 5718 5717 5715
5764 5763 5763 5762 5763 5763 5762 5760 5759 5757 5756 5756 5755 5756 5756 5755 5754 5753 5751 5750 5748 5746 5743 5742 5740 5739 5738 5737 5735 5734 5733 5731 5729 5728 5726 5725 5723 5721 5720 5718 5717 5716 5714
5765 5764 5764 5763 5763 5762 5762 5761 5759 5757 5754 5754 5754 5754 5754 5753 5753 5753 5751 5750 5749 5747 5744 5742 5740 5739 5737 5736 5735 5733 5732 5730 5729 5727 5726 5724 5722 5721 5719 5718 5716 5715 5714
5766 5765 5764 5764 5764 5762 5761 5760 5757 5757 5755 5754 5754 5753 5752 5753 5753 5752 5751 5750 5749 5748 5745 5743 5740 5737 5736 5735 5733 5732 5731 5730 5728 5727 5725 5723 5722 5720 5718 5717 5716 5714 5713
5767 5766 5766 5764 5763 5762 5760 5759 5757 5755 5754 5755 5750 5746 5748 5751 5751 5751 5750 5750 5749 5747 5745 5742 5740 5738 5736 5733 5732 5731 5730 5729 5727 5726 5724 5723 5721 5719 5718 5716 5715 5713 5712
5768 5768 5765 5764 5763 5761 5759 5758 5757 5754 5753 5755 5749 5742 5737 5739 5745 5749 5748 5746 5746 5745 5743 5741 5739 5737 5735 5733 5731 5729 5728 5727 5726 5724 5722 5721 5720 5718 5717 5715 5714 5712 5711
5770 5768 5767 5766 5764 5763 5760 5759 5758 5754 5750 5752 5753 5746 5737 5732 5736 5742 5744 5744 5744 5742 5741 5739 5737 5735 5733 5731 5729 5727 5725 5724 5723 5722 5720 5719 5717 5716 5714 5713 5712 5710 5709
5771 5770 5769 5767 5765 5764 5762 5761 5759 5757 5753 5749 5751 5751 5749 5746 5736 5731 5737 5740 5740 5739 5738 5737 5735 5733 5731 5728 5726 5724 5722 5721 5719 5718 5717 5715 5714 5713 5711 5710 5709 5708 5707
5773 5772 5770 5768 5766 5764 5763 5761 5759 5757 5755 5752 5750 5749 5748 5747 5745 5736 5729 5732 5734 5735 5735 5734 5732 5730 5728 5726 5724 5721 5719 5717 5715 5714 5713 5711 5710 5709 5708 5706 5705 5705 5704
5774 5773 5772 5769 5767 5765 5763 5761 5760 5758 5756 5754 5752 5751 5748 5745 5742 5740 5733 5730 5729 5730 5732 5732 5730 5728 5726 5723 5721 5718 5716 5713 5712 5710 5708 5707 5706 5705 5704 5703 5702 5701 5700
5774 5774 5773 5770 5768 5767 5765 5763 5761 5759 5757 5755 5753 5752 5751 5750 5749 5745 5738 5732 5728 5728 5729 5729 5728 5726 5724 5721 5717 5715 5712 5710 5708 5706 5704 5702 5701 5700 5699 5698 5697 5696 5695
5777 5776 5774 5771 5769 5768 5767 5764 5762 5760 5758 5756 5755 5753 5752 5751 5750 5747 5741 5734 5726 5725 5725 5724 5726 5724 5722 5718 5715 5712 5709 5706 5704 5702 5700 5698 5697 5695 5694 5693 5692 5691 5690
5779 5777 5774 5772 5770 5768 5766 5764 5761 5760 5758 5756 5754 5753 5751 5751 5750 5748 5745 5739 5730 5721 5720 5722 5722 5722 5719 5716 5712 5709 5706 5703 5700 5698 5696 5694 5692 5691 5689 5688 5687 5686 5684
5779 5777 5774 5772 5770 5768 5766 5764 5761 5760 5757 5755 5754 5752 5749 5749 5748 5747 5744 5741 5737 5729 5721 5722 5721 5720 5717 5713 5709 5706 5702 5699 5697 5695 5692 5690 5688 5686 5684 5682 5681 5680 5678
5778 5775 5773 5771 5769 5766 5765 5762 5760 5759 5756 5754 5753 5750 5748 5747 5745 5743 5742 5739 5735 5730 5721 5720 5719 5716 5713 5709 5705 5702 5699 5696 5693 5691 5688 5686 5683 5681 5679 5677 5675 5673 5671
5777 5776 5773 5771 5769 5766 5764 5761 5758 5756 5754 5751 5750 5748 5746 5745 5741 5739 5737 5735 5732 5729 5722 5715 5713 5710 5707 5705 5702 5698 5696 5693 5690 5687 5685 5682 5679 5677 5674 5672 5669 5667 5665
5776 5775 5772 5769 5767 5765 5763 5760 5757 5755 5753 5751 5749 5745 5743 5741 5737 5735 5733 5730 5728 5726 5721 5715 5710 5707 5704 5701 5697 5695 5693 5690 5688 5683 5680 5677 5675 5672 5669 5667 5664 5661 5658
5774 5772 5770 5768 5766 5764 5761 5759 5756 5753 5751 5749 5747 5744 5740 5737 5734 5731 5729 5726 5724 5720 5716 5711 5706 5702 5699 5696 5693 5689 5686 5685 5684 5681 5677 5674 5670 5667 5664 5661 5659 5655 5652
5772 5770 5767 5764 5763 5760 5758 5755 5753 5750 5747 5745 5743 5741 5738 5735 5731 5728 5726 5722 5719 5715 5711 5706 5701 5697 5693 5689 5687 5686 5682 5680 5679 5677 5673 5670 5666 5662 5659 5656 5653 5650 5647
5769 5767 5764 5761 5759 5757 5754 5751 5748 5746 5743 5740 5738 5736 5734 5730 5726 5723 5721 5718 5714 5710 5706 5702 5698 5693 5690 5688 5685 5682 5678 5674 5670 5673 5668 5665 5663 5659 5656 5653 5650 5647 5643
5765 5762 5760 5757 5754 5752 5750 5747 5744 5742 5740 5737 5734 5732 5730 5728 5723 5719 5716 5713 5710 5706 5703 5698 5694 5691 5688 5686 5681 5677 5674 5670 5668 5668 5663 5660 5659 5655 5654 5651 5647 5643 5639
5760 5757 5755 5753 5751 5748 5745 5742 5739 5737 5736 5734 5731 5728 5725 5722 5719 5715 5712 5709 5705 5702 5699 5695 5692 5689 5686 5683 5679 5675 5671 5668 5666 5664 5660 5654 5654 5651 5651 5647 5643 5639 5634
5755 5753 5751 5749 5746 5743 5740 5737 5733 5732 5730 5729 5727 5725 5721 5717 5714 5710 5707 5703 5700 5697 5694 5691 5688 5684 5680 5677 5673 5668 5664 5659 5657 5656 5655 5650 5648 5646 5644 5641 5637 5634 5630
5749 5747 5745 5744 5742 5739 5735 5731 5727 5726 5724 5723 5721 5719 5716 5712 5709 5705 5700 5697 5693 5691 5689 5686 5681 5678 5675 5671 5667 5663 5659 5654 5651 5650 5650 5645 5643 5639 5635 5635 5632 5627 5623